• In Österreich
  • Länderverzeichnis
  • Für 7 Tage
  • Wassertemperatur
  • Satellitenkarten
  • Wetterkarte
  • News
  • Widgets
  • user-avatar
    Anmelden

    Stündliche Wetter Petraki

    Heute, 20 September, Donnerstag

    Zeit Temperatur Niederschläge Wind Luftdruck Luftfeuchtigkeit
    00:00 +16°C° 0 mm 2 m/S 742 mmHg 96%
    01:00 +16°C° 0 mm 2 m/S 742 mmHg 96%
    02:00 +15°C° 0 mm 2 m/S 742 mmHg 98%
    03:00 +15°C° 0 mm 2 m/S 742 mmHg 98%
    04:00 +14°C° 0 mm 2 m/S 742 mmHg 98%
    05:00 +14°C° 0 mm 2 m/S 742 mmHg 98%
    06:00 +15°C° 0 mm 2 m/S 743 mmHg 95%
    07:00 +15°C° 0 mm 2 m/S 743 mmHg 92%
    08:00 +16°C° 0 mm 2 m/S 743 mmHg 89%
    09:00 +18°C° 0 mm 2 m/S 743 mmHg 80%
    10:00 +19°C° 0 mm 3 m/S 743 mmHg 71%
    11:00 +21°C° 0 mm 3 m/S 744 mmHg 62%
    12:00 +22°C° 0 mm 3 m/S 744 mmHg 59%
    13:00 +22°C° 0 mm 3 m/S 744 mmHg 56%
    14:00 +24°C° 0 mm 3 m/S 744 mmHg 54%
    15:00 +23°C° 0 mm 2 m/S 744 mmHg 59%
    16:00 +21°C° 0 mm 2 m/S 744 mmHg 65%
    17:00 +20°C° 0 mm 2 m/S 743 mmHg 71%
    18:00 +19°C° 0 mm 2 m/S 744 mmHg 75%
    19:00 +17°C° 0 mm 2 m/S 744 mmHg 80%
    20:00 +16°C° 0 mm 2 m/S 744 mmHg 84%
    21:00 +15°C° 0 mm 2 m/S 744 mmHg 85%
    22:00 +15°C° 0 mm 2 m/S 744 mmHg 86%
    23:00 +15°C° 0 mm 2 m/S 744 mmHg 87%

    Morgen, 21 September, Freitag

    Zeit Temperatur Niederschläge Wind Luftdruck Luftfeuchtigkeit
    00:00 +15°C° 0 mm 2 m/S 744 mmHg 89%
    01:00 +15°C° 0 mm 2 m/S 744 mmHg 91%
    02:00 +14°C° 0 mm 2 m/S 744 mmHg 93%
    03:00 +14°C° 0 mm 2 m/S 744 mmHg 94%
    04:00 +14°C° 0 mm 2 m/S 744 mmHg 95%
    05:00 +14°C° 0 mm 2 m/S 744 mmHg 97%
    06:00 +16°C° 0 mm 2 m/S 744 mmHg 93%
    07:00 +17°C° 0 mm 2 m/S 745 mmHg 89%
    08:00 +18°C° 0 mm 2 m/S 745 mmHg 85%
    09:00 +20°C° 0 mm 3 m/S 745 mmHg 78%
    10:00 +22°C° 0 mm 3 m/S 745 mmHg 71%
    11:00 +25°C° 0 mm 3 m/S 745 mmHg 64%
    12:00 +25°C° 0.3 mm 3 m/S 744 mmHg 63%
    13:00 +26°C° 0.3 mm 3 m/S 744 mmHg 62%
    14:00 +26°C° 0.3 mm 3 m/S 744 mmHg 61%
    15:00 +25°C° 0 mm 3 m/S 744 mmHg 66%
    16:00 +24°C° 0 mm 3 m/S 743 mmHg 70%
    17:00 +22°C° 0 mm 3 m/S 743 mmHg 74%
    18:00 +21°C° 0 mm 3 m/S 743 mmHg 78%
    19:00 +20°C° 0 mm 3 m/S 743 mmHg 81%
    20:00 +19°C° 0 mm 3 m/S 743 mmHg 85%
    21:00 +19°C° 0 mm 3 m/S 742 mmHg 84%
    22:00 +18°C° 0 mm 3 m/S 742 mmHg 83%
    23:00 +18°C° 0 mm 4 m/S 742 mmHg 82%

    übermorgen, 22 September, Samstag

    Zeit Temperatur Niederschläge Wind Luftdruck Luftfeuchtigkeit
    00:00 +18°C° 0 mm 4 m/S 741 mmHg 81%
    01:00 +18°C° 0 mm 4 m/S 741 mmHg 80%
    02:00 +17°C° 0 mm 4 m/S 740 mmHg 79%
    03:00 +17°C° 0 mm 4 m/S 740 mmHg 78%
    04:00 +17°C° 0 mm 4 m/S 739 mmHg 78%
    05:00 +16°C° 0 mm 5 m/S 739 mmHg 77%
    06:00 +17°C° 0 mm 5 m/S 738 mmHg 73%
    07:00 +17°C° 0 mm 5 m/S 738 mmHg 70%
    08:00 +19°C° 0 mm 6 m/S 738 mmHg 66%
    09:00 +20°C° 0 mm 6 m/S 738 mmHg 64%
    10:00 +21°C° 0 mm 6 m/S 738 mmHg 61%
    11:00 +21°C° 0 mm 6 m/S 738 mmHg 59%
    12:00 +19°C° 0.5 mm 5 m/S 738 mmHg 68%
    13:00 +15°C° 0.5 mm 4 m/S 739 mmHg 78%
    14:00 +12°C° 0.5 mm 3 m/S 739 mmHg 87%
    15:00 +12°C° 0.6 mm 3 m/S 739 mmHg 89%
    16:00 +11°C° 0.6 mm 3 m/S 739 mmHg 91%
    17:00 +10°C° 0.6 mm 2 m/S 739 mmHg 93%
    18:00 +10°C° 0.8 mm 2 m/S 740 mmHg 93%
    19:00 +10°C° 0.8 mm 2 m/S 740 mmHg 93%
    20:00 +10°C° 0.8 mm 3 m/S 740 mmHg 93%
    21:00 +10°C° 0.5 mm 3 m/S 740 mmHg 93%
    22:00 +10°C° 0.5 mm 3 m/S 740 mmHg 92%
    23:00 +10°C° 0.5 mm 2 m/S 740 mmHg 92%

    23 September, Sonntag

    Zeit Temperatur Niederschläge Wind Luftdruck Luftfeuchtigkeit
    00:00 +9°C° 0 mm 2 m/S 740 mmHg 92%
    01:00 +9°C° 0 mm 2 m/S 740 mmHg 92%
    02:00 +9°C° 0 mm 2 m/S 739 mmHg 93%
    03:00 +8°C° 0 mm 2 m/S 739 mmHg 93%
    04:00 +8°C° 0 mm 2 m/S 739 mmHg 94%
    05:00 +8°C° 0 mm 2 m/S 739 mmHg 94%
    06:00 +8°C° 0 mm 3 m/S 738 mmHg 92%
    07:00 +8°C° 0 mm 3 m/S 738 mmHg 89%
    08:00 +9°C° 0 mm 3 m/S 738 mmHg 86%
    09:00 +10°C° 0 mm 4 m/S 738 mmHg 79%
    10:00 +12°C° 0 mm 4 m/S 738 mmHg 72%
    11:00 +13°C° 0 mm 5 m/S 737 mmHg 64%
    12:00 +13°C° 0.2 mm 5 m/S 737 mmHg 63%
    13:00 +13°C° 0.2 mm 5 m/S 737 mmHg 62%
    14:00 +14°C° 0.2 mm 5 m/S 737 mmHg 61%
    15:00 +13°C° 0.1 mm 4 m/S 737 mmHg 65%
    16:00 +12°C° 0.1 mm 4 m/S 737 mmHg 69%
    17:00 +11°C° 0.1 mm 3 m/S 737 mmHg 74%
    18:00 +10°C° 0.1 mm 3 m/S 737 mmHg 78%
    19:00 +9°C° 0.1 mm 3 m/S 737 mmHg 82%
    20:00 +8°C° 0.1 mm 3 m/S 737 mmHg 86%
    21:00 +8°C° 0 mm 3 m/S 737 mmHg 88%
    22:00 +7°C° 0 mm 3 m/S 737 mmHg 89%
    23:00 +7°C° 0 mm 3 m/S 737 mmHg 90%

    24 September, Montag

    Zeit Temperatur Niederschläge Wind Luftdruck Luftfeuchtigkeit
    00:00 +7°C° 0 mm 2 m/S 737 mmHg 92%
    01:00 +6°C° 0 mm 2 m/S 736 mmHg 93%
    02:00 +6°C° 0 mm 2 m/S 736 mmHg 95%
    03:00 +6°C° 0 mm 2 m/S 735 mmHg 94%
    04:00 +6°C° 0 mm 2 m/S 735 mmHg 94%
    05:00 +6°C° 0 mm 2 m/S 734 mmHg 93%
    06:00 +7°C° 0.5 mm 3 m/S 733 mmHg 93%
    07:00 +7°C° 0.5 mm 3 m/S 733 mmHg 93%
    08:00 +6°C° 0.5 mm 4 m/S 732 mmHg 92%
    09:00 +6°C° 1.7 mm 4 m/S 731 mmHg 92%
    10:00 +6°C° 1.7 mm 5 m/S 729 mmHg 92%
    11:00 +5°C° 1.7 mm 6 m/S 728 mmHg 92%
    12:00 +6°C° 3.6 mm 5 m/S 727 mmHg 92%
    13:00 +6°C° 3.6 mm 5 m/S 725 mmHg 93%
    14:00 +6°C° 3.6 mm 5 m/S 723 mmHg 94%
    15:00 +7°C° 4.2 mm 5 m/S 722 mmHg 94%
    16:00 +7°C° 4.2 mm 5 m/S 721 mmHg 95%
    17:00 +7°C° 4.2 mm 4 m/S 720 mmHg 95%
    18:00 +7°C° 1.6 mm 4 m/S 720 mmHg 95%
    19:00 +7°C° 1.6 mm 4 m/S 720 mmHg 95%
    20:00 +6°C° 1.6 mm 4 m/S 719 mmHg 95%
    21:00 +6°C° 1.8 mm 5 m/S 720 mmHg 94%
    22:00 +5°C° 1.8 mm 6 m/S 721 mmHg 93%
    23:00 +4°C° 1.8 mm 8 m/S 721 mmHg 92%

    25 September, Dienstag

    Zeit Temperatur Niederschläge Wind Luftdruck Luftfeuchtigkeit
    00:00 +4°C° 1.3 mm 8 m/S 722 mmHg 91%
    01:00 +4°C° 1.3 mm 8 m/S 724 mmHg 90%
    02:00 +3°C° 1.3 mm 9 m/S 725 mmHg 88%
    03:00 +3°C° 0.7 mm 9 m/S 726 mmHg 87%
    04:00 +4°C° 0.7 mm 8 m/S 727 mmHg 86%
    05:00 +2°C° 0.7 mm 8 m/S 728 mmHg 85%
    06:00 +2°C° 0.2 mm 8 m/S 729 mmHg 85%
    07:00 +2°C° 0.2 mm 8 m/S 730 mmHg 85%
    08:00 +3°C° 0.2 mm 7 m/S 731 mmHg 85%
    09:00 +4°C° 0.1 mm 7 m/S 732 mmHg 82%
    10:00 +4°C° 0.1 mm 7 m/S 733 mmHg 79%
    11:00 +4°C° 0.1 mm 7 m/S 735 mmHg 77%
    12:00 +5°C° 0.2 mm 7 m/S 735 mmHg 73%
    13:00 +5°C° 0.2 mm 7 m/S 736 mmHg 70%
    14:00 +6°C° 0.2 mm 7 m/S 737 mmHg 67%
    15:00 +5°C° 0.1 mm 6 m/S 738 mmHg 68%
    16:00 +6°C° 0.1 mm 5 m/S 738 mmHg 68%
    17:00 +6°C° 0.1 mm 4 m/S 739 mmHg 68%
    18:00 +5°C° 0 mm 4 m/S 740 mmHg 71%
    19:00 +4°C° 0 mm 4 m/S 740 mmHg 73%
    20:00 +4°C° 0 mm 3 m/S 741 mmHg 76%
    21:00 +4°C° 0 mm 3 m/S 742 mmHg 77%
    22:00 +3°C° 0 mm 3 m/S 742 mmHg 78%
    23:00 +3°C° 0 mm 3 m/S 743 mmHg 79%
    Mehr zeigen